Station 45220 - Dunkirk Buoy Image indicating link to RSS feed of recent meteorological observations for station 45220


Conditions at 45220 as of
(12:30 pm EDT)
1630 GMT on 08/31/2026:
     

Click on the graph icon in the table below to see a time series plot of the last five days of that observation.

5-day plot - Wind Direction Wind Direction (WDIR): SW ( 230 deg true )
5-day plot - Wind Speed Wind Speed (WSPD): 7.8 kts
5-day plot - Wave Height Wave Height (WVHT): 1.3 ft
5-day plot - Mean Wave Direction Mean Wave Direction (MWD): W ( 260 deg true )
5-day plot - Atmospheric Pressure Atmospheric Pressure (PRES):30.07 in
5-day plot - Air Temperature Air Temperature (ATMP): 74.1 °F
5-day plot - Dew Point Dew Point (DEWP): 70.7 °F
5-day plot - Wind Speed at 10 Meters Wind Speed at 10 meters (WSPD10M): 5.8 kts
5-day plot - Wind Speed at 20 Meters Wind Speed at 20 meters (WSPD20M): 5.8 kts
5-day plot -  Wind Speed, Wind Gust and Atmospheric Pressure Combined plot of Wind Speed, Gust, and Air Pressure
Previous observations
TIME
(EDT)
5-day plot - Wind Direction
WDIR
 
5-day plot - Wind Speed
WSPD
kts
5-day plot - Wind Gust
GST
kts
5-day plot - Wave Height
WVHT
ft
5-day plot - Dominant Wave Period
DPD
sec
5-day plot - Average Wave Period
APD
sec
5-day plot - Mean Wave Direction
MWD
 
5-day plot - Atmospheric Pressure
PRES
in
5-day plot - Pressure Tendency
PTDY
in
5-day plot - Air Temperature
ATMP
°F
5-day plot - Water Temperature
WTMP
°F
5-day plot - Dew Point
DEWP
°F
5-day plot - Salinity
SAL
psu
5-day plot - Visibility
VIS
nmi
5-day plot - Tide (above MLLW)
TIDE
ft
2026-08-31 12:20 pm SW 7.8- 1.3 3--30.07- 74.1- 70.3---
2026-08-31 12:10 pmSSW 9.7- 1.3--WSW30.07- 73.9- 69.8---
2026-08-31 12:00 pm SW 11.7- 1.3 3--30.07-0.01 73.9- 69.8---
2026-08-31 11:50 amSSW 9.7- 1.3--WSW30.07- 73.6- 69.8---
2026-08-31 11:40 amSSW 9.7- 1.3 3--30.08- 73.4- 69.4---
2026-08-31 11:30 am SW 7.8- 1.3--WSW30.09- 73.2- 70.2---
2026-08-31 11:20 am SE 7.8- 1.3 3--30.09- 72.7- 69.1---
2026-08-31 11:10 amWSW 9.7- 1.3--WSW30.09- 72.7- 68.9---
2026-08-31 11:00 am SW 13.6- 1.3 3--30.08-0.01 73.2- 68.5---
2026-08-31 10:50 amSSW 9.7- 1.3-- W30.07- 73.2- 68.7---
2026-08-31 10:40 amSSW 9.7- 1.3 3--30.08- 72.3- 69.1---
2026-08-31 10:30 amSSW 7.8- 1.0--WSW30.07- 72.3- 68.9---
2026-08-31 10:20 am S 7.8- 1.0 3--30.07- 72.0- 68.5---
2026-08-31 10:10 amSSW 9.7- 1.0--WSW30.08- 72.0- 68.7---
2026-08-31 10:00 am S 7.8- 1.0 3--30.08-0.01 72.0- 68.4---
2026-08-31 09:50 amSSW 5.8- 1.0--SSW30.08- 71.4- 67.8---
2026-08-31 09:40 amWSW 7.8- 1.0 3--30.08- 70.7- 67.1---
2026-08-31 09:30 amSSW 9.7- 1.0-- SW30.09- 70.7- 67.3---
2026-08-31 09:20 amSSW 7.8- 1.0 3--30.08- 69.8- 67.3---
2026-08-31 09:10 am S 9.7- 1.0--SSW30.09- 69.3- 67.1---
2026-08-31 09:00 am S 7.8- 1.0 3--30.09+0.00 68.7- 67.5---
2026-08-31 08:50 amSSW 7.8- 1.0-- SW30.09- 69.3- 67.8---
2026-08-31 08:40 amWSW 7.8- 1.0 3--30.09- 69.1- 67.6---
2026-08-31 08:30 am SE 9.7- 1.3-- SW30.09- 68.9- 67.3---
2026-08-31 08:20 am S 7.8- 1.3 3--30.09- 68.5- 67.3---
2026-08-31 08:10 am SW 7.8- 1.3--WSW30.09- 68.9- 67.5---
2026-08-31 08:00 amESE 9.7- 1.3 3--30.08+0.00 69.4- 67.8---
2026-08-31 07:50 am SE 9.7- 1.3--WSW30.09- 69.3- 67.3---
2026-08-31 07:40 amSSE 9.7- 1.3 3--30.09- 69.3- 68.0---
2026-08-31 07:30 am SW 11.7- 1.3--WSW30.08- 69.3- 68.0---
2026-08-31 07:20 am S 11.7- 1.3 4--30.08- 69.4- 67.8---
2026-08-31 07:10 am S 11.7- 1.3-- SW30.09- 69.8- 66.9---
2026-08-31 07:00 am S 11.7- 1.3 3--30.09-0.01 70.0- 66.9---
2026-08-31 06:50 am SE 7.8- 1.3-- W30.10- 69.6- 66.6---
2026-08-31 06:40 amSSE 9.7- 1.3 3--30.09- 70.3- 66.9---
2026-08-31 06:30 am S 13.6- 1.3-- W30.08- 70.9- 66.9---
2026-08-31 06:20 am S 9.7- 1.3 3--30.09- 70.7- 67.1---
2026-08-31 06:10 am SE 9.7- 1.3-- W30.09- 71.1- 67.5---
2026-08-31 06:00 am SE 7.8- 1.3 3--30.08-0.04 71.4- 68.0---
2026-08-31 05:50 am SW 9.7- 1.3--WNW30.08- 71.6- 68.4---
2026-08-31 05:40 am SW 13.6- 1.3 3--30.08- 71.2- 68.5---
2026-08-31 05:30 amSSE 13.6- 1.3--WNW30.08- 71.8- 67.5---
2026-08-31 05:20 amSSW 13.6- 1.3 4--30.08- 71.8- 67.5---
2026-08-31 05:10 am W 11.7- 1.3-- W30.08- 72.1- 67.5---
2026-08-31 05:00 amSSE 9.7- 1.3 3--30.08-0.06 71.2- 67.6---
2026-08-31 04:50 amESE 11.7- 1.3--WSW30.08- 71.4- 67.8---
2026-08-31 04:40 am S 9.7- 1.3 3--30.09- 70.7- 67.5---
2026-08-31 04:30 am S 9.7- 1.3-- W30.09- 70.3- 66.7---
2026-08-31 04:20 am E 9.7- 1.3 4--30.09- 70.2- 66.7---
2026-08-31 04:10 am SW 11.7- 1.3--WNW30.10- 70.2- 66.6---
2026-08-31 04:00 am S 11.7- 1.3 4--30.10-0.03 70.2- 66.4---
2026-08-31 03:50 am S 9.7- 1.3--WNW30.10- 70.0- 66.9---
2026-08-31 03:40 am S 9.7- 1.3 3--30.10- 70.0- 66.7---
2026-08-31 03:30 amSSE 9.7- 1.3--WNW30.11- 70.2- 66.6---
2026-08-31 03:20 am S 7.8- 1.3 4--30.11- 70.2- 66.9---
2026-08-31 03:10 am S 7.8- 1.3--WNW30.11- 70.0- 66.4---
2026-08-31 03:00 amSSW 7.8- 1.3 3--30.12+0.00 69.8- 66.6---
2026-08-31 02:50 am SE 7.8- 1.3--WNW30.13- 69.6- 66.2---
2026-08-31 02:40 amSSW 7.8- 1.3 3--30.12- 69.6- 65.5---
2026-08-31 02:30 amWSW 9.7- 1.3-- W30.12- 69.8- 66.4---
2026-08-31 02:20 am SW 7.8- 1.3 3--30.13- 70.0- 65.7---
2026-08-31 02:10 am SW 9.7- 1.3--WNW30.13- 70.5- 66.4---
2026-08-31 02:00 am SW 7.8- 1.3 3--30.14-0.01 70.3- 65.8---
2026-08-31 01:50 am S 9.7- 1.3--WNW30.13- 70.0- 66.7---
2026-08-31 01:40 amSSW 9.7- 1.3 3--30.13- 70.3- 67.6---
2026-08-31 01:30 amSSW 11.7- 1.3--WNW30.13- 70.7- 67.6---
2026-08-31 01:20 am SE 11.7- 1.3 4--30.13- 70.3- 68.0---
2026-08-31 01:10 am S 9.7- 1.3--WNW30.13- 70.0- 68.0---
2026-08-31 01:00 am W 11.7- 1.3 3--30.13-0.02 70.2- 67.8---
2026-08-31 12:50 amWNW 13.6- 1.3--WNW30.13- 70.5- 68.2---
2026-08-31 12:40 amSSW 11.7- 1.3 3--30.13- 70.3- 67.6---
2026-08-31 12:30 am S 11.7- 1.3--WNW30.13- 70.3- 68.7---
2026-08-31 12:20 am W 7.8- 1.3 3--30.13- 70.7- 68.2---
2026-08-31 12:10 am SW 7.8- 1.6--WNW30.14- 70.7- 68.2---
2026-08-31 12:00 amSSW 9.7- 1.6 3--30.13-0.02 70.3- 68.0---
2026-08-30 11:50 pmWSW 7.8- 1.3--WNW30.13- 70.2- 68.0---
2026-08-30 11:40 pmWSW 7.8- 1.3 4--30.13- 70.2- 67.6---
2026-08-30 11:30 pmWSW 13.6- 1.6-- NW30.14- 70.3- 67.3---
2026-08-30 11:20 pm W 13.6- 1.6 3--30.14- 70.7- 67.5---
2026-08-30 11:10 pm W 9.7- 1.6--WNW30.14- 70.5- 67.1---
2026-08-30 11:00 pmWSW 9.7- 1.6 3--30.15+0.02 70.7- 66.9---
2026-08-30 10:50 pm W 9.7- 1.3--WNW30.14- 70.9- 68.2---
2026-08-30 10:40 pm W 11.7- 1.3 4--30.14- 70.9- 67.8---
2026-08-30 10:30 pm W 13.6- 1.3--WNW30.15- 71.1- 68.0---
2026-08-30 10:20 pm W 11.7- 1.3 4--30.15- 71.1- 67.8---
2026-08-30 10:10 pm W 9.7- 1.0--WNW30.15- 71.1- 69.1---
2026-08-30 10:00 pm W 9.7- 1.0 4--30.15+0.03 71.1- 69.3---
2026-08-30 09:50 pm W 13.6- 1.0--WNW30.15- 71.1- 69.1---
2026-08-30 09:40 pm W 13.6- 1.0 4--30.15- 70.5- 68.5---
2026-08-30 09:30 pm W 11.7- 1.0--WNW30.15- 71.1- 68.4---
2026-08-30 09:20 pmWSW 9.7- 1.0 4--30.15- 71.1- 68.9---
2026-08-30 09:10 pmWSW 7.8- 1.0--WNW30.15- 70.9- 68.2---
2026-08-30 09:00 pm W 7.8- 1.0 3--30.15+0.03 70.7- 68.2---
2026-08-30 08:50 pmSSW 5.8- 0.7--WNW30.14- 70.7- 68.0---
2026-08-30 08:40 pmSSE 5.8- 0.7---30.14- 70.7- 67.6---
2026-08-30 08:30 pm S 5.8- 0.7--WNW30.14- 70.7- 66.7---
2026-08-30 08:20 pm S 5.8- 0.7---30.13- 70.7- 66.4---
2026-08-30 08:10 pmSSE 5.8- 0.7-- W30.13- 70.9- 67.3---
2026-08-30 08:00 pm S 3.9- 0.7---30.13+0.00 70.7- 67.1---
2026-08-30 07:50 pmSSW 3.9- 0.7--WNW30.12- 70.7- 66.9---
2026-08-30 07:40 pmSSW 3.9- 0.7---30.12- 70.7- 66.6---
2026-08-30 07:30 pmSSW 3.9- 0.7--WNW30.12- 70.5- 66.7---
2026-08-30 07:20 pmSSW 1.9- 0.7---30.11- 70.2- 66.2---
2026-08-30 07:10 pm S 3.9- 1.0--WNW30.12- 69.8- 66.0---
2026-08-30 07:00 pmSSE 3.9- 1.0 3--30.12-0.01 70.0- 66.4---
2026-08-30 06:50 pm S 5.8- 1.0--WNW30.12- 70.0- 66.0---
2026-08-30 06:40 pm S 3.9- 1.0 3--30.12- 69.8- 64.9---
2026-08-30 06:30 pmSSW 5.8- 1.0--WNW30.12- 70.0- 65.8---
2026-08-30 06:20 pmSSW 5.8- 1.0 2--30.12- 70.0- 65.7---
2026-08-30 06:10 pmSSW 5.8- 1.0--WNW30.12- 69.8- 65.3---
2026-08-30 06:00 pm S 5.8- 1.0 3--30.12-0.03 69.6- 65.7---
2026-08-30 05:50 pm S 3.9- 1.0--WNW30.12- 69.4- 65.1---
2026-08-30 05:40 pm SW 7.8- 1.0 2--30.12- 69.4- 65.5---
2026-08-30 05:30 pmSSW 7.8- 1.0--WNW30.12- 69.8- 65.3---
2026-08-30 05:20 pm S 7.8- 1.0 4--30.12- 69.8- 65.3---
2026-08-30 05:10 pm SW 9.7- 0.7--WNW30.12- 70.3- 64.6---
2026-08-30 05:00 pmWSW 11.7- 0.7---30.12-0.03 70.5- 66.7---
2026-08-30 04:50 pmSSW 9.7- 0.7--WNW30.13- 70.7- 67.1---
2026-08-30 04:40 pm NW 11.7- 0.7---30.13- 70.9- 65.8---
2026-08-30 04:30 pm SW 7.8- 0.7--WNW30.13- 70.5- 68.4---
2026-08-30 04:20 pmWSW 5.8- 1.0 4--30.13- 70.5- 67.6---
2026-08-30 04:10 pmSSW 3.9- 1.0--WNW30.13- 70.5- 66.6---
2026-08-30 04:00 pm S 1.9- 1.0 4--30.13-0.03 70.5- 66.7---
2026-08-30 03:50 pmSSW 3.9- 1.0--WNW30.14- 70.5- 66.9---
2026-08-30 03:40 pmSSE 1.9- 1.0 4--30.14- 70.3- 66.6---
2026-08-30 03:30 pmSSW 3.9- 1.0--WNW30.14- 70.3- 66.6---
2026-08-30 03:20 pm S 3.9- 1.0 4--30.14- 70.5- 66.6---
2026-08-30 03:10 pm S 3.9- 1.0-- NW30.14- 70.3- 66.7---
2026-08-30 03:00 pm S 1.9- 1.0 4--30.15-0.02 70.5- 66.6---
2026-08-30 02:50 pm S 5.8- 1.0-- NW30.14- 70.9- 66.7---
2026-08-30 02:40 pm S 5.8- 1.0 3--30.14- 70.9- 66.0---
2026-08-30 02:30 pm S 3.9- 1.0-- NW30.15- 71.2- 65.1---
2026-08-30 02:20 pm S 1.9- 1.0 4--30.15- 71.1- 64.8---
2026-08-30 02:10 pm S 1.9- 1.0-- NW30.15- 70.9- 65.1---
2026-08-30 02:00 pm S 1.9- 1.0 3--30.15-0.01 70.7- 64.9---
2026-08-30 01:50 pm- 0.0- 1.0-- NW30.16- 70.7- 64.8---
2026-08-30 01:40 pm- 0.0- 1.0 3--30.15- 70.5- 64.8---
2026-08-30 01:30 pm SW 3.9- 1.0-- NW30.16- 70.5- 65.7---
2026-08-30 01:20 pm SW 1.9- 1.0 4--30.16- 70.3- 64.8---
2026-08-30 01:10 pmWNW 3.9- 1.0-- NW30.16- 70.2- 64.0---
2026-08-30 01:00 pm NW 3.9- 1.0 3--30.16+0.03 70.2- 64.8---
2026-08-30 12:50 pm N 3.9- 1.0--NNW30.16- 70.2- 64.4---

Wave Summary
for 45220 as of (12:20 pm EDT)
1620 GMT on 08/31/2026:

These wave data are displayed in rounded times.

     

Click on the graph icon in the table below to see a time series plot of the last five days of that observation.

5-day plot - Significant Wave Height Significant Wave Height (WVHT): 1.3 ft
Previous observations
TIME
(EDT)
5-day plot - Wave Height
WVHT
ft
5-day plot - Swell Height
SwH
ft
5-day plot - Swell Period
SwP
sec
5-day plot - Swell Direction
SwD
 
5-day plot - Wind Wave Height
WWH
ft
5-day plot - Wind Wave Period
WWP
sec
5-day plot - Wind Wave Direction
WWD
 
5-day plot - Wave Steepness
STEEPNESS
 
5-day plot - Average Wave Period
APD
sec
2026-08-31 12:00 pm 1.3------ N/A-
2026-08-31 11:40 am 1.3------ N/A-
2026-08-31 11:20 am 1.3------ N/A-
2026-08-31 11:00 am 1.3------ N/A-
2026-08-31 10:40 am 1.3------ N/A-
2026-08-31 10:20 am 1.0------ N/A-
2026-08-31 10:00 am 1.0------ N/A-
2026-08-31 09:40 am 1.0------ N/A-
2026-08-31 09:20 am 1.0------ N/A-
2026-08-31 09:00 am 1.0------ N/A-
2026-08-31 08:40 am 1.0------ N/A-
2026-08-31 08:20 am 1.3------ N/A-
2026-08-31 08:00 am 1.3------ N/A-
2026-08-31 07:40 am 1.3------ N/A-
2026-08-31 07:20 am 1.3------ N/A-
2026-08-31 07:00 am 1.3------ N/A-
2026-08-31 06:40 am 1.3------ N/A-
2026-08-31 06:20 am 1.3------ N/A-
2026-08-31 06:00 am 1.3------ N/A-
2026-08-31 05:40 am 1.3------ N/A-
2026-08-31 05:20 am 1.3------ N/A-
2026-08-31 05:00 am 1.3------ N/A-
2026-08-31 04:40 am 1.3------ N/A-
2026-08-31 04:20 am 1.3------ N/A-
2026-08-31 04:00 am 1.3------ N/A-
2026-08-31 03:40 am 1.3------ N/A-
2026-08-31 03:20 am 1.3------ N/A-
2026-08-31 03:00 am 1.3------ N/A-
2026-08-31 02:40 am 1.3------ N/A-
2026-08-31 02:20 am 1.3------ N/A-
2026-08-31 02:00 am 1.3------ N/A-
2026-08-31 01:40 am 1.3------ N/A-
2026-08-31 01:20 am 1.3------ N/A-
2026-08-31 01:00 am 1.3------ N/A-
2026-08-31 12:40 am 1.3------ N/A-
2026-08-31 12:20 am 1.3------ N/A-
2026-08-31 12:00 am 1.6------ N/A-
2026-08-30 11:40 pm 1.3------ N/A-
2026-08-30 11:20 pm 1.6------ N/A-
2026-08-30 11:00 pm 1.6------ N/A-
2026-08-30 10:40 pm 1.3------ N/A-
2026-08-30 10:20 pm 1.3------ N/A-
2026-08-30 10:00 pm 1.0------ N/A-
2026-08-30 09:40 pm 1.0------ N/A-
2026-08-30 09:20 pm 1.0------ N/A-
2026-08-30 09:00 pm 1.0------ N/A-
2026-08-30 08:40 pm 0.7------ N/A-
2026-08-30 08:20 pm 0.7------ N/A-
2026-08-30 08:00 pm 0.7------ N/A-
2026-08-30 07:40 pm 0.7------ N/A-
2026-08-30 07:20 pm 0.7------ N/A-
2026-08-30 07:00 pm 1.0------ N/A-
2026-08-30 06:40 pm 1.0------ N/A-
2026-08-30 06:20 pm 1.0------ N/A-
2026-08-30 06:00 pm 1.0------ N/A-
2026-08-30 05:40 pm 1.0------ N/A-
2026-08-30 05:20 pm 1.0------ N/A-
2026-08-30 05:00 pm 0.7------ N/A-
2026-08-30 04:40 pm 0.7------ N/A-
2026-08-30 04:20 pm 0.7------ N/A-
2026-08-30 04:00 pm 1.0------ N/A-
2026-08-30 03:40 pm 1.0------ N/A-
2026-08-30 03:20 pm 1.0------ N/A-
2026-08-30 03:00 pm 1.0------ N/A-
2026-08-30 02:40 pm 1.0------ N/A-
2026-08-30 02:20 pm 1.0------ N/A-
2026-08-30 02:00 pm 1.0------ N/A-
2026-08-30 01:40 pm 1.0------ N/A-
2026-08-30 01:20 pm 1.0------ N/A-
2026-08-30 01:00 pm 1.0------ N/A-

Ocean Conditions at 45220 as of
(6:30 am EDT)
1030 GMT on 08/31/2026:
Note: This report is more than two hours old

These oceanographic data are displayed in rounded times.

     

Click on the graph icon in the table below to see a time series plot of the last five days of that observation.

Depth (DEPTH): 6.6 ft
5-day plot - Ocean Temperature Ocean Temperature (OTMP):73.04 °F
Previous observations
TIME
(EDT)
DEPTH
ft
5-day plot - Ocean Temperature
OTMP
°F
5-day plot - Conductivity
COND
mS/cm
5-day plot - Salinity
SAL
psu
5-day plot - Oxygen Saturation
O2%
%
5-day plot - Oxygen Concentration
O2PPM
ppm
5-day plot - Chlorophyll
CLCON
ug/l
5-day plot - Turbidity
TURB
FTU
5-day plot - pH
PH
 
5-day plot - Eh
EH
mV
2026-08-31 06:20 am 6.673.04--------
2026-08-31 06:10 am 6.673.04--------
2026-08-31 06:00 am 6.673.04--------
2026-08-31 05:50 am 6.673.04--------
2026-08-31 05:40 am 6.673.04--------
2026-08-31 05:30 am 6.673.08--------
2026-08-31 05:20 am 6.673.08--------
2026-08-31 05:10 am 6.673.08--------
2026-08-31 05:00 am 6.673.08--------
2026-08-31 04:50 am 6.673.08--------
2026-08-31 04:40 am 6.673.08--------
2026-08-31 04:30 am 6.673.09--------
2026-08-31 04:20 am 6.673.09--------
2026-08-31 04:10 am 6.673.09--------
2026-08-31 04:00 am 6.673.09--------
2026-08-31 03:50 am 6.673.09--------
2026-08-31 03:40 am 6.673.09--------
2026-08-31 03:30 am 6.673.17--------
2026-08-31 03:20 am 6.673.17--------
2026-08-31 03:10 am 6.673.17--------
2026-08-31 03:00 am 6.673.17--------
2026-08-31 02:50 am 6.673.17--------
2026-08-31 02:40 am 6.673.17--------
2026-08-31 02:30 am 6.673.22--------
2026-08-31 02:20 am 6.673.22--------
2026-08-31 02:10 am 6.673.22--------
2026-08-31 02:00 am 6.673.22--------
2026-08-31 01:50 am 6.673.22--------
2026-08-31 01:40 am 6.673.22--------
2026-08-31 01:30 am 6.673.22--------
2026-08-31 01:20 am 6.673.22--------
2026-08-31 01:10 am 6.673.22--------
2026-08-31 01:00 am 6.673.22--------
2026-08-31 12:50 am 6.673.22--------
2026-08-31 12:40 am 6.673.22--------
2026-08-31 12:30 am 6.673.22--------
2026-08-31 12:20 am 6.673.22--------
2026-08-31 12:10 am 6.673.22--------
2026-08-31 12:00 am 6.673.22--------
2026-08-30 11:50 pm 6.673.22--------
2026-08-30 11:40 pm 6.673.22--------
2026-08-30 11:30 pm 6.673.22--------
2026-08-30 11:20 pm 6.673.22--------
2026-08-30 11:10 pm 6.673.22--------
2026-08-30 11:00 pm 6.673.22--------
2026-08-30 10:50 pm 6.673.22--------
2026-08-30 10:40 pm 6.673.22--------
2026-08-30 10:30 pm 6.673.22--------
2026-08-30 10:20 pm 6.673.22--------
2026-08-30 10:10 pm 6.673.22--------
2026-08-30 10:00 pm 6.673.22--------
2026-08-30 09:50 pm 6.673.22--------
2026-08-30 09:40 pm 6.673.22--------
2026-08-30 09:30 pm 6.673.22--------
2026-08-30 09:20 pm 6.673.22--------
2026-08-30 05:30 pm 6.673.53--------
2026-08-30 05:20 pm 6.673.53--------
2026-08-30 05:10 pm 6.673.53--------
2026-08-30 05:00 pm 6.673.53--------
2026-08-30 04:50 pm 6.673.53--------
2026-08-30 04:40 pm 6.673.53--------
2026-08-30 04:30 pm 6.673.63--------
2026-08-30 04:20 pm 6.673.63--------
2026-08-30 04:10 pm 6.673.63--------
2026-08-30 04:00 pm 6.673.63--------
2026-08-30 03:50 pm 6.673.63--------
2026-08-30 03:40 pm 6.673.63--------
2026-08-30 03:30 pm 6.673.67--------
2026-08-30 03:20 pm 6.673.67--------
2026-08-30 03:10 pm 6.673.67--------
2026-08-30 03:00 pm 6.673.67--------
2026-08-30 02:50 pm 6.673.67--------
2026-08-30 02:40 pm 6.673.67--------
2026-08-30 02:30 pm 6.673.62--------
2026-08-30 02:20 pm 6.673.62--------
2026-08-30 02:10 pm 6.673.62--------
2026-08-30 02:00 pm 6.673.62--------
2026-08-30 01:50 pm 6.673.62--------
2026-08-30 01:40 pm 6.673.62--------
2026-08-30 01:30 pm 6.673.58--------
2026-08-30 01:20 pm 6.673.58--------
2026-08-30 01:10 pm 6.673.58--------
2026-08-30 01:00 pm 6.673.58--------
2026-08-30 12:50 pm 6.673.58--------